User: anonymous   Login
Location: Brahman Valley
(40.6513°N, 111.8855°W)
Time: 08:23:08
(UTC+00:00)
Language:

ITUPSAT 1 - Orbit

View from above orbital plane
View from above orbital plane
View from above satellite
View from above satellite

Ground track
Ground track

The orbit data is extracted from the following two-line orbital elements,

1 35935U 09051E   21171.28040204  .00000102  00000-0  34401-4 0  9991
2 35935  98.6093  13.3453 0009330  92.6740 267.5524 14.55731937623214
Epoch (UTC): 20 June 2021 06:43:46
Eccentricity: 0.0009330
inclination: 98.6093°
perigee height: 700 km
apogee height: 713 km
right ascension of ascending node: 13.3453°
argument of perigee: 92.6740°
revolutions per day: 14.55731937
mean anomaly at epoch: 267.5524°
orbit number at epoch: 62321

The dashed part of the orbit path shows where the satellite is in the earth's shadow,  

DLR